Weather reports worldwide

Advertisment
Startbyn, Sweden (2181): temperature & dewpoint: 06.12.2019 17:00:00 - 12.12.2019 17:00:00 (CET)Startbyn, Sweden (2181): wind speed & gusts: 06.12.2019 17:00:00 - 12.12.2019 17:00:00 (CET)Startbyn, Sweden (2181): wind direction: 06.12.2019 17:00:00 - 12.12.2019 17:00:00 (CET)Startbyn, Sweden (2181): reduced air pressure: 06.12.2019 17:00:00 - 12.12.2019 17:00:00 (CET)Startbyn, Sweden (2181): visibility: 06.12.2019 17:00:00 - 12.12.2019 17:00:00 (CET)Startbyn, Sweden (2181): precipitation: 06.12.2019 17:00:00 - 12.12.2019 17:00:00 (CET)
Date & Time tt [°C] td [°C] ff [km/h] ff [kn] fx [km/h] fx [kn] dd ppp [hPa] vv [km] rr [mm]
12.12.2019 17:00:00 - - - - - - - - - -
12.12.2019 16:00:00 1,3 0,7 10 5 20 11 S 995,0 13 0,0
12.12.2019 15:00:00 1,2 0,5 10 5 28 15 SSE 995,1 21 0,0
12.12.2019 14:00:00 1,1 0,2 10 5 22 12 S 995,3 20 0,0
12.12.2019 13:00:00 1,1 0,4 10 5 22 12 SSE 995,4 11 0,0
12.12.2019 12:00:00 0,8 0,2 10 5 21 11 S 995,5 16 0,1
12.12.2019 11:00:00 1,0 0,3 10 5 21 11 S 995,7 6 0,0
12.12.2019 10:00:00 0,9 0,3 10 5 18 10 S 995,9 22 0,0
12.12.2019 09:00:00 0,7 -0,2 8 4 16 9 S 995,9 50 0,0
12.12.2019 08:00:00 0,4 -0,3 9 5 24 13 SSE 995,4 23 0,0
12.12.2019 07:00:00 0,6 -0,4 14 7 35 19 S 995,5 23 0,0
12.12.2019 06:00:00 0,5 -0,2 16 8 30 16 S 995,1 50 0,0
12.12.2019 05:00:00 0,3 -0,3 10 5 30 16 S 995,4 50 0,0
12.12.2019 04:00:00 0,0 -0,5 15 8 34 19 S 995,2 50 0,0
12.12.2019 03:00:00 0,0 -0,3 14 8 36 19 S 995,4 22 0,0
12.12.2019 02:00:00 -0,1 -0,4 19 10 38 20 S 995,1 2,3 0,0
12.12.2019 01:00:00 0,0 -0,3 18 10 36 20 S 994,9 17 0,0
12.12.2019 00:00:00 -0,1 -0,5 13 7 23 13 S 994,8 50 0,0
11.12.2019 23:00:00 0,0 -0,4 11 6 21 11 S 994,6 50 0,0
11.12.2019 22:00:00 0,2 -0,3 11 6 24 13 S 994,0 50 0,0
11.12.2019 21:00:00 0,3 0,0 13 7 22 12 S 993,1 50 0,0
11.12.2019 20:00:00 0,4 0,3 13 7 26 14 S 992,2 50 0,0
11.12.2019 19:00:00 0,6 0,5 16 9 32 17 SSW 990,5 50 0,0
11.12.2019 18:00:00 0,5 0,4 14 8 24 13 S 989,3 50 0,2
11.12.2019 17:00:00 0,4 0,3 11 6 23 12 S 988,5 5 0,5
11.12.2019 16:00:00 0,3 0,2 12 6 35 19 S 988,1 3,0 0,5
11.12.2019 15:00:00 0,3 0,2 16 9 33 18 S 987,9 7 0,4
11.12.2019 14:00:00 0,2 0,1 12 6 30 16 S 988,4 3,9 0,6
11.12.2019 13:00:00 0,1 0,0 16 8 37 20 S 989,0 1,8 0,6
11.12.2019 12:00:00 -0,1 -0,2 17 9 41 22 SSE 990,0 1,3 0,4
11.12.2019 11:00:00 -0,4 -0,5 17 9 43 23 SSE 990,9 0,8 0,9
11.12.2019 10:00:00 -1,0 -1,3 16 9 39 21 SSE 992,4 0,8 1,1
11.12.2019 09:00:00 -1,5 -1,8 15 8 36 19 SSE 993,8 0,9 1,8
11.12.2019 08:00:00 -1,5 -1,8 16 8 41 22 SSE 995,1 0,3 1,6
11.12.2019 07:00:00 -1,5 -1,9 16 9 37 20 SSE 996,5 0,4 1,3
11.12.2019 06:00:00 -1,9 -2,3 15 8 32 17 SSE 998,2 0,6 0,9
11.12.2019 05:00:00 -4,3 -5,0 10 5 22 12 ESE 1000,0 1,1 0,5
11.12.2019 04:00:00 -10,3 -11,2 0 0 9 5 N 1002,2 2,0 0,3
11.12.2019 03:00:00 -13,9 -15,5 0 0 3 2 N 1004,0 6 0,2
11.12.2019 02:00:00 -16,9 -18,7 0 0 4 2 N 1005,5 11 0,0
11.12.2019 01:00:00 -18,8 -21,0 0 0 3 2 N 1006,8 50 0,0
11.12.2019 00:00:00 -20,2 -22,5 0 0 3 2 N 1007,0 42 0,0
10.12.2019 23:00:00 -21,3 -23,7 0 0 4 2 N 1008,0 33 0,0
10.12.2019 22:00:00 -21,3 -23,7 2 1 4 2 ENE 1008,6 50 0,0
10.12.2019 21:00:00 -21,6 -24,0 0 0 4 2 N 1008,5 50 0,0
10.12.2019 20:00:00 -22,1 -24,6 0 0 5 3 N 1008,8 50 0,0
10.12.2019 19:00:00 -21,8 -24,2 0 0 3 2 N 1009,1 44 0,0
10.12.2019 18:00:00 -21,5 -24,0 0 0 3 2 N 1009,2 50 0,0
10.12.2019 17:00:00 -20,9 -23,3 0 0 3 2 N 1009,3 48 0,0
10.12.2019 16:00:00 -20,2 -22,5 0 0 4 2 N 1008,8 50 0,0
10.12.2019 15:00:00 -19,5 -21,6 0 0 7 4 N 1008,2 50 0,0
10.12.2019 14:00:00 -18,8 -21,0 0 0 3 2 N 1007,9 31 0,0
10.12.2019 13:00:00 -18,2 -20,2 0 0 3 2 N 1007,3 12 0,0
10.12.2019 12:00:00 -17,6 -19,6 0 0 5 3 N 1006,7 29 0,0
10.12.2019 11:00:00 -17,6 -19,6 0 0 4 2 N 1006,0 50 0,0
10.12.2019 10:00:00 -17,3 -19,4 0 0 5 3 N 1005,0 50 0,0
10.12.2019 09:00:00 -17,0 -18,9 0 0 5 3 N 1004,1 50 0,0
10.12.2019 08:00:00 -16,1 -18,0 2 1 4 2 E 1003,0 50 0,0
10.12.2019 07:00:00 -15,8 -17,3 2 1 5 3 ESE 1001,9 50 0,0
10.12.2019 06:00:00 -14,2 -15,6 0 0 6 3 N 1000,6 50 0,0
10.12.2019 05:00:00 -13,4 -15,4 0 0 10 5 N 999,5 50 0,0
10.12.2019 04:00:00 -11,5 -13,8 3 2 15 8 NW 998,3 50 0,0
10.12.2019 03:00:00 -10,9 -13,2 6 3 12 6 NW 997,0 50 0,0
10.12.2019 02:00:00 -11,2 -14,0 7 4 17 9 NW 995,6 50 0,0
10.12.2019 01:00:00 -11,2 -13,7 7 4 20 11 NW 994,2 50 0,0
10.12.2019 00:00:00 -11,1 -13,6 6 3 22 12 NW 992,9 50 0,0
09.12.2019 23:00:00 -10,2 -12,7 9 5 22 12 NW 991,9 50 0,0
09.12.2019 22:00:00 -10,0 -12,0 5 3 11 6 NW 990,3 50 0,0
09.12.2019 21:00:00 -9,0 -11,2 5 3 13 7 NNW 988,9 50 0,0
09.12.2019 20:00:00 -8,2 -10,4 6 4 27 15 NW 987,8 50 0,0
09.12.2019 19:00:00 -8,1 -10,0 12 7 23 12 NW 986,3 50 0,0
09.12.2019 18:00:00 -8,4 -10,0 12 7 21 12 NW 984,7 50 0,0
09.12.2019 17:00:00 -8,0 -9,9 6 3 18 10 NW 983,3 39 0,0
09.12.2019 16:00:00 -7,5 -9,2 7 4 22 12 NW 982,2 50 0,0
09.12.2019 15:00:00 -6,8 -8,5 8 4 22 12 NW 980,9 50 0,0
09.12.2019 14:00:00 -6,2 -8,0 11 6 23 13 NNW 979,7 50 0,0
09.12.2019 13:00:00 -5,8 -7,5 10 5 25 13 NNW 978,7 17 0,0
09.12.2019 12:00:00 -5,2 -6,6 9 5 24 13 NNW 977,7 4,7 0,0
09.12.2019 11:00:00 -4,9 -6,4 10 6 21 11 NNW 976,7 28 0,0
09.12.2019 10:00:00 -4,9 -6,3 8 4 21 11 NNW 976,1 27 0,0
09.12.2019 09:00:00 -4,9 -6,1 8 4 25 13 NNW 975,3 50 0,0
09.12.2019 08:00:00 -5,0 -6,2 8 5 19 10 N 974,8 13 -
09.12.2019 07:00:00 -5,3 -6,5 5 3 16 8 N 974,4 15 -
09.12.2019 06:00:00 -5,7 -6,8 4 2 12 7 NNW 974,3 50 0,0
09.12.2019 05:00:00 -6,0 -7,2 6 3 16 9 N 974,2 50 0,0
09.12.2019 04:00:00 -6,1 -7,1 5 3 13 7 NNE 974,9 50 0,0
09.12.2019 03:00:00 -6,2 -7,1 4 2 14 8 N 975,1 50 0,0
09.12.2019 02:00:00 -6,3 -7,1 4 2 11 6 NNW 975,5 50 0,0
09.12.2019 01:00:00 -6,9 -7,7 3 1 6 3 NNW 976,2 7 0,0
09.12.2019 00:00:00 -7,3 -8,1 3 2 6 3 NNW 976,9 4,3 0,0
08.12.2019 23:00:00 -7,5 -8,4 0 0 4 2 N 977,6 6 0,0
08.12.2019 22:00:00 -7,8 -8,7 4 2 10 5 N 977,8 33 0,0
08.12.2019 21:00:00 -7,9 -8,8 2 1 5 3 N 978,3 6 0,0
08.12.2019 20:00:00 -7,7 -8,5 0 0 4 2 N 978,6 2,1 0,1
08.12.2019 19:00:00 -8,0 -8,9 0 0 5 3 N 979,0 2,2 0,1
08.12.2019 18:00:00 -8,4 -9,5 0 0 4 2 N 979,1 26 0,0
08.12.2019 17:00:00 -8,2 -9,3 0 0 5 3 N 979,0 11 0,0
08.12.2019 16:00:00 -8,2 -9,4 2 1 7 4 NNW 979,4 27 0,0
08.12.2019 15:00:00 -8,4 -9,7 0 0 10 5 N 979,5 50 0,0
08.12.2019 14:00:00 -9,3 -10,6 4 2 5 3 SSE 979,9 50 0,0
08.12.2019 13:00:00 -9,7 -11,0 0 0 9 5 N 979,6 46 0,0
08.12.2019 12:00:00 -9,5 -11,0 6 3 12 6 WNW 979,6 50 0,0
08.12.2019 11:00:00 -10,8 -12,3 3 2 16 8 NW 979,5 50 0,0
08.12.2019 10:00:00 -10,1 -11,6 9 5 18 10 NW 979,5 50 0,0
08.12.2019 09:00:00 -10,3 -11,9 9 5 18 10 NW 979,8 50 0,0
08.12.2019 08:00:00 -11,0 -12,5 9 5 19 10 NW 979,7 50 0,0
08.12.2019 07:00:00 -11,3 -12,7 9 5 18 10 NW 979,7 50 0,0
08.12.2019 06:00:00 -11,1 -12,6 9 5 16 8 NW 979,6 12 0,0
08.12.2019 05:00:00 -11,7 -13,1 4 2 9 5 NW 979,7 50 0,0
08.12.2019 04:00:00 -12,6 -14,1 3 1 9 5 NW 979,7 50 0,0
08.12.2019 03:00:00 -10,9 -12,2 3 2 10 5 NW 980,0 40 0,0
08.12.2019 02:00:00 -11,2 -12,5 4 2 9 5 WNW 979,9 48 -
08.12.2019 01:00:00 -11,2 -12,4 3 2 9 5 NW 979,7 14 0,0
08.12.2019 00:00:00 -12,2 -13,5 5 3 10 5 NW 979,7 7 0,1
07.12.2019 23:00:00 -12,5 -13,9 0 0 6 3 N 979,5 30 0,0
07.12.2019 22:00:00 -12,7 -14,1 0 0 5 3 N 979,4 5 0,0
07.12.2019 21:00:00 -12,7 -14,0 2 1 5 3 NW 979,4 8 0,0
07.12.2019 20:00:00 -12,6 -13,6 3 1 6 3 NW 979,4 0,5 0,0
07.12.2019 19:00:00 -12,3 -13,3 0 0 2 1 N 979,6 0,6 0,0
07.12.2019 18:00:00 -12,8 -14,0 0 0 8 4 N 979,7 3,6 0,0
07.12.2019 17:00:00 -11,9 -13,5 2 1 6 3 ESE 979,7 13 0,0
07.12.2019 16:00:00 -13,6 -15,2 0 0 4 2 N 980,2 34 0,0
07.12.2019 15:00:00 -13,5 -15,2 0 0 5 3 N 980,2 22 0,0
07.12.2019 14:00:00 -10,1 -11,1 0 0 3 2 N 980,2 50 0,0
07.12.2019 13:00:00 -10,3 -11,5 0 0 4 2 N 980,6 50 0,0
07.12.2019 12:00:00 -9,1 -9,9 0 0 5 3 N 980,8 50 0,0
07.12.2019 11:00:00 -10,9 -12,4 0 0 4 2 N 981,1 50 0,0
07.12.2019 10:00:00 -9,9 -10,9 0 0 5 3 N 981,4 50 0,0
07.12.2019 09:00:00 -10,0 -11,1 3 2 5 3 SE 981,4 50 0,0
07.12.2019 08:00:00 -12,4 -14,1 0 0 4 2 N 980,9 50 0,0
07.12.2019 07:00:00 -9,2 -10,3 0 0 5 3 N 980,8 45 0,0
07.12.2019 06:00:00 -10,5 -12,1 3 1 5 3 ESE 980,6 50 0,0
07.12.2019 05:00:00 -8,8 -9,7 3 2 6 3 S 980,6 50 0,0
07.12.2019 04:00:00 -8,7 -9,4 2 1 7 4 ESE 980,4 50 0,0
07.12.2019 03:00:00 -10,5 -11,5 2 1 6 3 ESE 980,6 50 0,0
07.12.2019 02:00:00 -12,0 -13,3 3 2 6 3 SSE 980,5 50 0,0
07.12.2019 01:00:00 -12,1 -13,4 0 0 4 2 N 980,4 50 0,0
07.12.2019 00:00:00 -11,0 -12,2 0 0 5 3 N 980,2 11 0,0
06.12.2019 23:00:00 -11,2 -12,7 0 0 5 3 N 980,3 50 0,0
06.12.2019 22:00:00 -10,1 -11,4 0 0 3 2 N 980,3 43 0,0
06.12.2019 21:00:00 -10,6 -11,9 0 0 3 2 N 980,0 50 0,0
06.12.2019 20:00:00 -10,5 -11,8 0 0 5 3 N 979,9 50 0,0
06.12.2019 19:00:00 -11,3 -12,6 0 0 4 2 N 979,8 50 0,0
06.12.2019 18:00:00 -11,4 -12,7 0 0 6 3 N 979,4 50 0,0
06.12.2019 17:00:00 -10,1 -11,3 0 0 4 2 N 979,2 50 0,0

tt = temperature
td = dewpoint
ff = wind speed
fx = gusts
dd = wind direction
ppp = reduced air pressure
vv = visibility
rr = precipitation

Next stations